User: anonymous   Login
Location: Unspecified
(34.4425°N, 0.0000°E)
Time: 03:23:45
(UTC+00:00)
Language:

SL-8 DEB - Orbit

View from above orbital plane
View from above orbital plane
View from above satellite
View from above satellite

Ground track
Ground track

The orbit is defined by the following mean orbital elements,

1 57165U          26086.93042247 +.00000000 +00000-0 +63605-4 0 00004
2 57165  74.0493 154.6745 0022600 283.5328  76.3307 14.36353206    05
Epoch (UTC): 27 March 2026 22:19:48
Eccentricity: 0.0022600
inclination: 74.0493°
perigee height: 754 km
apogee height: 787 km
right ascension of ascending node: 154.6745°
argument of perigee: 283.5328°
revolutions per day: 14.36353206
mean anomaly at epoch: 76.3307°

The dashed part of the orbit path shows where the satellite is in the earth's shadow,  

DLR